Flag for U.S.A. Weather past 2 weeks in Vista, California, U.S.A.

Now
67 °F

Sunny.


Feels Like: 67 °F
Forecast: 47 / 71 °F
Wind: 10 mph from West

Location: McClellan-Palomar Airport


UV Index: 7 (High)

Visibility: 10 mi


Pressure: 29.98 "Hg

Humidity: 55%

Dew point: 50 °F

Location of VistaLocation

Historic Weather in Vista

°F

Vista temperature yesterday

Maximum temperature yesterday: 66 °F (at 3:53 PM)
Minimum temperature yesterday: 54 °F (at 5:53 AM)
Average temperature yesterday: 61 °F

Past Weeks' High & Low Weather Summary

 TemperatureHumidityPressure
High79 °F (Apr 9, 12:53 PM)96% (Apr 15, 3:53 AM)30.05 "Hg (Apr 15, 3:53 AM)
Low51 °F (Apr 10, 5:53 AM)24% (Apr 9, 1:53 PM)29.80 "Hg (Apr 16, 4:53 PM)
Average61 °F73%29.94 "Hg
* Reported Apr 9 10:53 AM — Apr 24 10:53 AM, Vista, Weather by CustomWeather, © 2014

Note: Actual official high and low records may vary slightly from our data, if they occured in-between our weather recording intervals... More about our weather records

Advertising

Historic Weather Conditions — Data for Previous 24 hours

 ConditionsComfort  
Time TempWeatherWind HumidityBarometerVisibility
10:53 AM
Apr 24
67 °FSunny.10 mph55%29.98 "Hg10 mi
9:53 AM65 °FSunny.3 mph63%29.97 "Hg10 mi
8:53 AM62 °FSunny.5 mph67%29.97 "Hg10 mi
7:53 AM60 °FSunny.No wind67%29.97 "Hg10 mi
6:53 AM56 °FClear.No wind75%29.95 "Hg10 mi
5:53 AM56 °FClear.No wind75%29.94 "Hg10 mi
4:53 AM56 °FClear.3 mph77%29.92 "Hg10 mi
3:53 AM56 °FClear.No wind77%29.93 "Hg10 mi
2:53 AM58 °FClear.No wind72%29.93 "Hg10 mi
1:53 AM58 °FClear.No wind75%29.93 "Hg10 mi
12:53 AM59 °FClear.No wind72%29.93 "Hg10 mi
11:53 PM
Apr 23
59 °FClear.No wind67%29.94 "Hg10 mi
10:53 PM60 °FClear.3 mph72%29.94 "Hg10 mi
8:53 PM61 °FClear.No wind72%29.94 "Hg10 mi
7:53 PM62 °FSunny.5 mph70%29.92 "Hg10 mi
6:53 PM63 °FSunny.6 mph60%29.91 "Hg10 mi
5:53 PM64 °FSunny.8 mph68%29.90 "Hg10 mi
4:53 PM66 °FSunny.8 mph56%29.90 "Hg10 mi
3:53 PM66 °FSunny.6 mph54%29.91 "Hg10 mi
2:53 PM65 °FSunny.9 mph63%29.93 "Hg10 mi
1:53 PM64 °FSunny.9 mph63%29.93 "Hg10 mi
12:53 PM65 °FSunny.9 mph59%29.94 "Hg10 mi
Weather by CustomWeather, © 2014

See weather overview